Port Isabel, TX

1:46 PM CST on November 21, 2017 (GMT -0600)
Port Isabel-Cameron County

Weather History for KPIL - February, 2014

Change the Weather History Date:

Sunday, February 16, 2014

  Actual Average (KBRO) Record (KBRO)
Temperature  
Mean Temperature 73 °F -  
Max Temperature 80 °F 73 °F 94 °F (1982)
Min Temperature 66 °F 54 °F 22 °F (1895)
Cooling Degree Days 8    
Growing Degree Days 23 (Base 50)    
Moisture  
Dew Point 65 °F    
Average Humidity 80    
Maximum Humidity 94    
Minimum Humidity 58    
Precipitation  
Precipitation 0.00 in - - ()
Sea Level Pressure  
Sea Level Pressure 30.01 in    
Wind  
Wind Speed 13 mph (SSE)    
Max Wind Speed 24 mph    
Max Gust Speed 32 mph    
Visibility 6 miles    
Events      
Averages and records for this station are not official NWS values.
T = Trace of Precipitation, MM = Missing Value Source: NWS Daily Summary

Daily Weather History Graph

Daily Weather History Graph

Search for Another Location

Airport or City:

Trip Planner

Search our weather history database for the weather conditions in past years. The results will help you decide how hot, cold, wet, or windy it might be!

Date:

Astronomy

Feb. 16, 2014 Rise Set
Actual Time 7:04 AM CST 6:23 PM CST
Civil Twilight 6:40 AM CST 6:46 PM CST
Nautical Twilight 6:13 AM CST 7:13 PM CST
Astronomical Twilight 5:46 AM CST 7:40 PM CST
Moon 8:05 PM CST (2/16) 7:48 AM CST (2/16)
Length of Visible Light 12h 06m
Length of Day
11h 18m
Full, 97% of the Moon is Illuminated
Feb 16
Full
Feb 22
Last Quarter
Mar 1
New
Mar 8
First Quarter
Mar 16
Full

Hourly Weather History & Observations

Time (CST) Temp. Heat Index Dew Point Humidity Pressure Visibility Wind Dir Wind Speed Gust Speed Precip Events Conditions
12:31 AM 68.0 °F - 64.4 °F 88% 30.04 in 6.0 mi SSE 12.7 mph - N/A   Mostly Cloudy
12:53 AM 66.9 °F - 64.0 °F 90% 30.04 in 6.0 mi SSE 11.5 mph - N/A   Mostly Cloudy
1:34 AM 66.2 °F - 64.4 °F 94% 30.03 in 6.0 mi SSE 11.5 mph - N/A   Scattered Clouds
1:53 AM 66.9 °F - 64.0 °F 90% 30.02 in 6.0 mi SSE 11.5 mph - N/A   Clear
2:23 AM 66.2 °F - 64.4 °F 94% 30.02 in 6.0 mi South 10.4 mph - N/A   Mostly Cloudy
2:53 AM 66.9 °F - 64.0 °F 90% 30.01 in 6.0 mi South 11.5 mph - N/A   Overcast
3:53 AM 66.9 °F - 64.0 °F 90% 30.00 in 6.0 mi South 9.2 mph - N/A   Overcast
4:37 AM 66.2 °F - 62.6 °F 88% 29.98 in 5.0 mi South 8.1 mph - N/A   Scattered Clouds
4:49 AM 66.2 °F - 62.6 °F 88% 29.98 in 5.0 mi South 8.1 mph - N/A   Mostly Cloudy
4:53 AM 66.0 °F - 63.0 °F 90% 29.98 in 5.0 mi South 8.1 mph - N/A   Mostly Cloudy
5:53 AM 66.9 °F - 63.0 °F 87% 29.99 in 5.0 mi South 10.4 mph - N/A   Overcast
6:53 AM 66.9 °F - 63.0 °F 87% 30.00 in 5.0 mi SSE 5.8 mph - N/A   Mostly Cloudy
7:53 AM 68.0 °F - 63.0 °F 84% 30.03 in 5.0 mi South 5.8 mph - N/A   Haze
8:53 AM 70.0 °F - 64.0 °F 81% 30.05 in 5.0 mi SSE 8.1 mph - N/A   Haze
9:53 AM 72.0 °F - 64.0 °F 76% 30.05 in 6.0 mi SSE 13.8 mph 20.7 mph N/A   Haze
10:53 AM 75.0 °F - 64.0 °F 69% 30.06 in 7.0 mi South 19.6 mph 25.3 mph N/A   Overcast
11:53 AM 77.0 °F - 64.0 °F 64% 30.04 in 8.0 mi South 23.0 mph 29.9 mph N/A   Mostly Cloudy
12:51 PM 78.8 °F - 64.4 °F 61% 30.02 in 8.0 mi SSE 20.7 mph 27.6 mph N/A   Scattered Clouds
12:53 PM 79.0 °F - 64.0 °F 60% 30.02 in 8.0 mi SSE 18.4 mph 27.6 mph N/A   Scattered Clouds
1:53 PM 80.1 °F 81.7 °F 64.0 °F 58% 29.99 in 8.0 mi South 19.6 mph 31.1 mph N/A   Partly Cloudy
2:53 PM 80.1 °F 81.9 °F 64.9 °F 60% 29.97 in 8.0 mi SSE 20.7 mph 28.8 mph N/A   Scattered Clouds
3:02 PM 80.6 °F 82.3 °F 64.4 °F 58% 29.97 in 8.0 mi SSE 24.2 mph 31.1 mph N/A   Mostly Cloudy
3:48 PM 77.0 °F - 64.4 °F 65% 29.96 in 8.0 mi SSE 19.6 mph 32.2 mph N/A   Partly Cloudy
3:53 PM 78.1 °F - 64.9 °F 64% 29.96 in 8.0 mi SSE 20.7 mph 32.2 mph N/A   Partly Cloudy
4:53 PM 77.0 °F - 64.9 °F 66% 29.96 in 8.0 mi South 24.2 mph 31.1 mph N/A   Clear
5:53 PM 73.9 °F - 66.0 °F 76% 29.97 in 8.0 mi South 18.4 mph 27.6 mph N/A   Clear
6:53 PM 72.0 °F - 66.9 °F 84% 29.98 in 7.0 mi SSE 17.3 mph - N/A   Partly Cloudy
7:53 PM 71.1 °F - 66.9 °F 87% 29.99 in 7.0 mi SSE 13.8 mph - N/A   Mostly Cloudy
8:25 PM 71.6 °F - 66.2 °F 83% 30.01 in 7.0 mi SSE 12.7 mph - N/A   Overcast
8:53 PM 71.1 °F - 66.9 °F 87% 30.01 in 6.0 mi South 11.5 mph - N/A   Overcast
9:53 PM 70.0 °F - 66.9 °F 90% 30.02 in 6.0 mi South 11.5 mph - N/A   Partly Cloudy
10:06 PM 71.6 °F - 66.2 °F 83% 30.02 in 6.0 mi South 11.5 mph - N/A   Mostly Cloudy
10:22 PM 71.6 °F - 66.2 °F 83% 30.02 in 6.0 mi South 11.5 mph - N/A   Overcast
10:33 PM 71.6 °F - 66.2 °F 83% 30.02 in 6.0 mi South 10.4 mph - N/A   Overcast
10:53 PM 71.1 °F - 66.9 °F 87% 30.02 in 6.0 mi South 12.7 mph 18.4 mph N/A   Overcast
11:16 PM 71.6 °F - 66.2 °F 83% 30.02 in 6.0 mi South 10.4 mph - N/A   Overcast
11:24 PM 69.8 °F - 66.2 °F 88% 30.02 in 6.0 mi South 10.4 mph - N/A   Overcast
11:53 PM 71.1 °F - 66.9 °F 87% 30.01 in 6.0 mi South 13.8 mph - N/A   Overcast